Simultaneous Nadir Overpasses (SNOs) Predictions

Prediction of SNOs between AURA and NPP Satellite Orbit:

Table of predicted SNOs for the next 14.0 days since TLE Epoch: 6/13/2020
Index Date (AURA) Time (AURA) Lat,Lon (AURA) SZA (AURA ) Date (NPP) Time (NPP) Lat,Lon (NPP) SZA (NPP ) Distance(km) Time Diff (sec)
1 06/15/2020 03:41:34 79.39, 20.65 69.66 06/15/2020 03:41:09 79.38, 20.51 69.70 2.98 25
2 06/15/2020 04:30:54 -79.66,-169.81 110.75 06/15/2020 04:31:46 -79.65,-169.88 110.78 1.46 52
3 06/17/2020 19:58:01 79.46, 137.04 69.49 06/17/2020 19:58:01 79.46, 136.92 69.52 2.50 0
4 06/17/2020 20:45:17 -81.75, -6.75 117.89 06/17/2020 20:46:30 -81.08, -7.34 118.19 74.50 73
5 06/20/2020 11:25:07 -79.35, 84.53 110.35 06/20/2020 11:24:14 -79.35, 84.57 110.32 0.84 53
6 06/20/2020 12:14:27 79.57,-106.34 69.33 06/20/2020 12:14:52 79.56,-106.40 69.32 1.36 25
7 06/23/2020 03:41:32 -79.46,-158.88 110.47 06/23/2020 03:41:04 -79.46,-158.77 110.47 2.45 28
8 06/23/2020 04:30:52 79.67, 10.27 69.22 06/23/2020 04:31:42 79.67, 10.29 69.18 0.42 50
9 06/25/2020 19:58:00 -79.48, -42.84 110.41 06/25/2020 19:57:58 -79.47, -42.92 110.39 1.67 2




NCC Satellite Simultaneous Nadir Overpasses (SNOs) Prediction Service
